Battle Creek, MI

9:20 AM EDT on October 17, 2019 (GMT -0400)
Kellogg

Weather History for KBTL - September, 2019

Change the Weather History Date:

Saturday, September 21, 2019

  Actual Average Record
Temperature  
Mean Temperature 76 °F 60 °F  
Max Temperature 86 °F 71 °F 93 °F (2017)
Min Temperature 65 °F 48 °F 33 °F (1996)
Degree Days  
Heating Degree Days 0 7  
Month to date heating degree days 14 80  
Since 1 July heating degree days 21 121  
Cooling Degree Days 11 1  
Month to date cooling degree days 92 47  
Year to date cooling degree days 749 565  
Growing Degree Days 24 (Base 50)    
Moisture  
Dew Point 66 °F    
Average Humidity 76    
Maximum Humidity 93    
Minimum Humidity 59    
Precipitation  
Precipitation T in 0.13 in 1.55 in (2001)
Month to date precipitation 1.88 2.55  
Year to date precipitation 25.33 24.09  
Sea Level Pressure  
Sea Level Pressure 30.11 in    
Wind  
Wind Speed 8 mph (SSW)    
Max Wind Speed 17 mph    
Max Gust Speed 25 mph    
Visibility 10 miles    
Events      
T = Trace of Precipitation, MM = Missing Value Source: NWS Daily Summary

Daily Weather History Graph

Daily Weather History Graph

Search for Another Location

Airport or City:

Astronomy

Sep. 21, 2019 Rise Set
Actual Time 7:27 AM EDT 7:40 PM EDT
Civil Twilight 6:59 AM EDT 8:08 PM EDT
Nautical Twilight 6:26 AM EDT 8:41 PM EDT
Astronomical Twilight 5:52 AM EDT 9:14 PM EDT
Moon No Moon Rise 2:39 PM EDT (9/21)
Length of Visible Light 13h 09m
Length of Day
12h 13m
Waning Gibbous, 55% of the Moon is Illuminated
Sep 21
Waning Gibbous
Sep 21
Last Quarter
Sep 28
New
Oct 5
First Quarter
Oct 13
Full

Hourly Weather History & Observations

Time (EDT) Temp. Heat Index Dew Point Humidity Pressure Visibility Wind Dir Wind Speed Gust Speed Precip Events Conditions
12:53 AM 69.1 °F - 66.9 °F 93% 30.13 in 10.0 mi SSE 4.6 mph - N/A   Clear
1:53 AM 66.9 °F - 64.9 °F 93% 30.14 in 10.0 mi Calm Calm - N/A   Clear
2:53 AM 66.9 °F - 64.9 °F 93% 30.13 in 10.0 mi South 3.5 mph - N/A   Clear
3:53 AM 68.0 °F - 64.0 °F 87% 30.12 in 10.0 mi Calm Calm - N/A   Clear
4:53 AM 66.9 °F - 64.9 °F 93% 30.13 in 10.0 mi SSE 3.5 mph - N/A   Clear
5:53 AM 64.9 °F - 63.0 °F 93% 30.14 in 10.0 mi SSE 4.6 mph - N/A   Clear
6:53 AM 66.9 °F - 64.0 °F 90% 30.15 in 10.0 mi SSE 3.5 mph - N/A   Clear
7:53 AM 66.9 °F - 64.9 °F 93% 30.17 in 10.0 mi South 5.8 mph - N/A   Scattered Clouds
8:53 AM 69.1 °F - 66.0 °F 90% 30.16 in 10.0 mi South 5.8 mph - N/A   Mostly Cloudy
9:53 AM 73.0 °F - 68.0 °F 84% 30.17 in 10.0 mi SSW 6.9 mph - N/A   Clear
11:53 AM 82.0 °F 84.9 °F 68.0 °F 62% 30.14 in 10.0 mi SW 11.5 mph - N/A   Clear
12:53 PM 82.0 °F 84.9 °F 68.0 °F 62% 30.13 in 10.0 mi SW 15.0 mph 25.3 mph N/A   Scattered Clouds
1:53 PM 84.0 °F 87.0 °F 68.0 °F 58% 30.12 in 10.0 mi SW 13.8 mph - N/A   Mostly Cloudy
2:53 PM 81.0 °F 84.4 °F 70.0 °F 69% 30.12 in 10.0 mi SSW 12.7 mph - 0.00 in   Mostly Cloudy
3:53 PM 80.1 °F 83.2 °F 70.0 °F 71% 30.10 in 10.0 mi SSW 9.2 mph - 0.00 in   Mostly Cloudy
4:53 PM 80.1 °F 82.9 °F 69.1 °F 69% 30.08 in 10.0 mi SW 6.9 mph - N/A   Partly Cloudy
5:53 PM 80.1 °F 82.9 °F 69.1 °F 69% 30.07 in 10.0 mi SSW 10.4 mph - N/A   Partly Cloudy
6:53 PM 79.0 °F - 66.9 °F 66% 30.06 in 10.0 mi SSW 9.2 mph - N/A   Clear
7:53 PM 77.0 °F - 66.0 °F 69% 30.06 in 10.0 mi SSW 11.5 mph - N/A   Overcast
8:53 PM 75.9 °F - 66.0 °F 71% 30.07 in 10.0 mi SSW 12.7 mph - 0.00 in   Partly Cloudy
9:53 PM 75.0 °F - 64.9 °F 71% 30.07 in 10.0 mi SSW 11.5 mph - N/A   Overcast
10:53 PM 75.0 °F - 64.9 °F 71% 30.06 in 10.0 mi South 10.4 mph - N/A   Mostly Cloudy
11:53 PM 75.0 °F - 64.0 °F 69% 30.04 in 10.0 mi South 12.7 mph - N/A   Clear